Weather History for KSYR - September, 2011

Change the Weather History Date:

Thursday, September 29, 2011

  Actual Average Record
Temperature  
Mean Temperature 63 °F 57 °F  
Max Temperature 70 °F 67 °F 90 °F (1959)
Min Temperature 56 °F 47 °F 30 °F (2000)
Degree Days  
Heating Degree Days 2 9  
Month to date heating degree days 65 131  
Since 1 July heating degree days 67 157  
Cooling Degree Days 0 1  
Month to date cooling degree days 104 54  
Year to date cooling degree days 911 567  
Growing Degree Days 13 (Base 50)    
Moisture  
Dew Point 60 °F    
Average Humidity 83    
Maximum Humidity 93    
Minimum Humidity 73    
Precipitation  
Precipitation 0.88 in 0.13 in 1.51 in (1986)
Month to date precipitation 6.36 3.57  
Year to date precipitation 39.00 28.16  
Snow  
Snow 0.00 in 0.00 in 0.00 in (2002)
Month to date snowfall 0.0 0.0  
Since 1 July snowfall 0.0 0.0  
Since 1 September snowfall 0.0 0.0  
Snow Depth 0.00 in    
Sea Level Pressure  
Sea Level Pressure 29.68 in    
Wind  
Wind Speed 4 mph (West)    
Max Wind Speed 23 mph    
Max Gust Speed 29 mph    
Visibility 6 miles    
Events Fog , Rain , Thunderstorm    
T = Trace of Precipitation, MM = Missing Value Source: NWS Daily Summary

Daily Weather History Graph

Daily Weather History Graph

Search for Another Location

Airport or City:

Trip Planner

Search our weather history database for the weather conditions in past years. The results will help you decide how hot, cold, wet, or windy it might be!

Date:

Astronomy

Sep. 29, 2011 Rise Set
Actual Time 6:59 AM EDT 6:49 PM EDT
Civil Twilight 6:30 AM EDT 7:17 PM EDT
Nautical Twilight 5:57 AM EDT 7:50 PM EDT
Astronomical Twilight 5:24 AM EDT 8:24 PM EDT
Moon 9:47 AM EDT 7:53 PM EDT
Length of Visible Light 12h 47m
Length of Day
11h 50m
Waxing Crescent, 7% of the Moon is Illuminated
Sep 29
Waxing Crescent
Oct 3
First Quarter
Oct 11
Full
Oct 19
Last Quarter
Oct 26
New

Hourly Weather History & Observations

Time (EDT) Temp. Dew Point Humidity Pressure Visibility Wind Dir Wind Speed Gust Speed Precip Events Conditions
12:17 AM 66.2 °F 64.4 °F 94% 29.80 in 9.0 mi Calm Calm - 0.01 in Rain Light Rain
12:43 AM 64.4 °F 62.6 °F 94% 29.79 in 1.5 mi NNW 5.8 mph - 0.15 in Rain Heavy Rain
12:45 AM 64.4 °F 62.6 °F 94% 29.79 in 1.5 mi NNW 4.6 mph - 0.20 in Rain Heavy Rain
12:51 AM 64.4 °F 62.6 °F 94% 29.78 in 3.0 mi North 4.6 mph - 0.24 in Rain Light Rain
12:54 AM 64.9 °F 63.0 °F 93% 29.77 in 5.0 mi NNW 5.8 mph - 0.24 in Rain Light Rain
1:10 AM 64.4 °F 62.6 °F 94% 29.78 in 1.5 mi Calm Calm - 0.13 in Rain Heavy Rain
1:13 AM 64.4 °F 62.6 °F 94% 29.78 in 2.0 mi ESE 3.5 mph - 0.15 in Rain Rain
1:16 AM 64.4 °F 62.6 °F 94% 29.78 in 3.0 mi ESE 4.6 mph - 0.16 in Rain Light Rain
1:22 AM 64.4 °F 62.6 °F 94% 29.78 in 4.0 mi SE 4.6 mph - 0.17 in Rain Light Rain
1:32 AM 64.4 °F 62.6 °F 94% 29.78 in 5.0 mi ESE 3.5 mph - 0.17 in Rain Light Rain
1:54 AM 64.9 °F 63.0 °F 93% 29.77 in 3.0 mi Calm Calm - 0.20 in Rain Light Rain
2:30 AM 64.4 °F 62.6 °F 94% 29.77 in 3.0 mi Calm Calm - 0.04 in Rain Light Rain
2:48 AM 64.4 °F 62.6 °F 94% 29.77 in 3.0 mi Calm Calm - 0.04 in Rain Light Rain
2:54 AM 64.9 °F 63.0 °F 93% 29.75 in 3.0 mi Calm Calm - 0.05 in Rain Light Rain
2:58 AM 64.4 °F 62.6 °F 94% 29.76 in 3.0 mi Calm Calm - 0.00 in Rain Light Rain
3:25 AM 64.4 °F 62.6 °F 94% 29.76 in 2.5 mi Calm Calm - 0.07 in Rain Light Rain
3:47 AM 64.4 °F 62.6 °F 94% 29.77 in 2.0 mi South 6.9 mph - 0.12 in Rain Rain
3:54 AM 64.0 °F 62.1 °F 93% 29.75 in 2.0 mi South 4.6 mph - 0.14 in Rain Rain
3:58 AM 64.4 °F 62.6 °F 94% 29.76 in 2.0 mi Calm Calm - 0.01 in Rain Rain
4:11 AM 64.4 °F 60.8 °F 88% 29.75 in 3.0 mi Calm Calm - 0.04 in Rain Light Rain
4:26 AM 64.4 °F 60.8 °F 88% 29.73 in 4.0 mi East 3.5 mph - 0.07 in Rain Light Rain
4:54 AM 63.0 °F 61.0 °F 93% 29.71 in 7.0 mi ESE 4.6 mph - 0.07 in Rain Light Rain
5:54 AM 62.1 °F 60.1 °F 93% 29.71 in 10.0 mi SSW 4.6 mph - 0.00 in   Mostly Cloudy
6:13 AM 62.6 °F 60.8 °F 94% 29.73 in 10.0 mi WSW 5.8 mph - N/A   Mostly Cloudy
6:29 AM 62.6 °F 60.8 °F 94% 29.73 in 8.0 mi West 4.6 mph - N/A Fog Patches of Fog
6:46 AM 62.6 °F 60.8 °F 94% 29.73 in 8.0 mi West 5.8 mph - N/A Fog Patches of Fog
6:54 AM 63.0 °F 60.1 °F 90% 29.72 in 8.0 mi West 6.9 mph - N/A Fog Patches of Fog
7:07 AM 62.6 °F 60.8 °F 94% 29.72 in 8.0 mi Calm Calm - N/A   Mostly Cloudy
7:54 AM 63.0 °F 60.1 °F 90% 29.71 in 8.0 mi Calm Calm - N/A   Mostly Cloudy
8:54 AM 64.0 °F 60.1 °F 87% 29.71 in 10.0 mi WSW 3.5 mph - N/A   Mostly Cloudy
9:54 AM 66.0 °F 61.0 °F 84% 29.70 in 10.0 mi SW 3.5 mph - N/A   Mostly Cloudy
10:54 AM 66.9 °F 60.1 °F 79% 29.68 in 10.0 mi West 5.8 mph - N/A   Overcast
11:23 AM 66.2 °F 60.8 °F 83% 29.69 in 10.0 mi WSW 5.8 mph - 0.00 in   Overcast
11:34 AM 66.2 °F 59.0 °F 78% 29.68 in 10.0 mi West 3.5 mph - 0.00 in   Overcast
11:54 AM 66.9 °F 59.0 °F 76% 29.66 in 10.0 mi Calm Calm - 0.00 in   Overcast
12:54 PM 69.1 °F 60.1 °F 73% 29.63 in 10.0 mi Calm Calm - N/A   Overcast
1:54 PM 66.9 °F 60.1 °F 79% 29.61 in 10.0 mi WNW 4.6 mph - 0.00 in Rain Light Rain
2:07 PM 66.2 °F 60.8 °F 83% 29.63 in 2.5 mi West 12.7 mph - 0.02 in Rain Rain
2:10 PM 64.4 °F 60.8 °F 88% 29.63 in 1.5 mi West 18.4 mph 27.6 mph 0.06 in Rain Heavy Rain
2:17 PM 62.6 °F 57.2 °F 82% 29.62 in 1.8 mi West 19.6 mph 28.8 mph 0.12 in Rain Heavy Rain
2:19 PM 62.6 °F 57.2 °F 82% 29.62 in 2.5 mi West 16.1 mph 28.8 mph 0.12 in Rain , Thunderstorm Thunderstorms and Rain
2:21 PM 62.6 °F 57.2 °F 82% 29.62 in 3.0 mi West 15.0 mph 28.8 mph 0.13 in Rain , Thunderstorm Thunderstorms and Rain
2:24 PM 62.6 °F 59.0 °F 88% 29.62 in 3.0 mi West 11.5 mph - 0.13 in Rain , Thunderstorm Light Thunderstorms and Rain
2:37 PM 62.6 °F 59.0 °F 88% 29.62 in 3.0 mi West 10.4 mph - 0.16 in Rain Light Rain
2:54 PM 62.1 °F 59.0 °F 90% 29.60 in 3.0 mi West 10.4 mph - 0.18 in Rain Light Rain
3:54 PM 62.1 °F 57.0 °F 84% 29.58 in 10.0 mi WNW 3.5 mph - 0.03 in   Overcast
4:54 PM 64.0 °F 57.9 °F 80% 29.56 in 10.0 mi Calm Calm - N/A   Overcast
5:54 PM 63.0 °F 59.0 °F 87% 29.56 in 8.0 mi Calm Calm - N/A   Overcast
5:58 PM 62.6 °F 57.2 °F 82% 29.57 in 2.0 mi NNW 17.3 mph 23.0 mph 0.00 in Rain Rain
6:07 PM 60.8 °F 55.4 °F 82% 29.57 in 2.0 mi North 6.9 mph - 0.16 in Rain , Thunderstorm Thunderstorms and Rain
6:13 PM 60.8 °F 57.2 °F 88% 29.58 in 6.0 mi NNW 8.1 mph - 0.19 in Rain , Thunderstorm Light Thunderstorms and Rain
6:17 PM 60.8 °F 57.2 °F 88% 29.57 in 8.0 mi NNW 8.1 mph - 0.19 in Thunderstorm Thunderstorm
6:23 PM 60.8 °F 57.2 °F 88% 29.58 in 10.0 mi North 4.6 mph - 0.19 in   Overcast
6:54 PM 61.0 °F 57.0 °F 87% 29.58 in 7.0 mi Calm Calm - 0.21 in Rain Light Rain
7:54 PM 60.1 °F 57.0 °F 90% 29.59 in 9.0 mi SSW 4.6 mph - 0.00 in   Overcast
8:54 PM 60.1 °F 55.0 °F 83% 29.61 in 10.0 mi WSW 6.9 mph - N/A   Overcast
9:54 PM 57.0 °F 54.0 °F 89% 29.60 in 10.0 mi SW 5.8 mph - N/A   Overcast
10:54 PM 57.9 °F 54.0 °F 87% 29.60 in 10.0 mi SSW 4.6 mph - N/A   Mostly Cloudy
11:54 PM 57.0 °F 53.1 °F 87% 29.59 in 10.0 mi SW 5.8 mph - N/A   Scattered Clouds